Temp
-16 -16 -16 -16 -16 -16 -16 -17 -17 -18 -18 -19 -19 -20 -20 -20 -20 -19 -18 -18 -17 -17 -17 -16 -16 -16 -16
-17 -17 -17 -17 -17 -17 -17 -18 -18 -19 -20 -20 -20 -21 -21 -21 -21 -21 -20 -19 -19 -18 -17 -17 -17 -17 -17
-17 -18 -18 -18 -18 -18 -18 -19 -19 -20 -21 -21 -22 -22 -22 -22 -22 -22 -22 -21 -20 -20 -20 -19 -18 -18 -18
-18 -18 -18 -18 -18 -18 -19 -20 -20 -21 -21 -22 -23 -24 -24 -24 -23 -23 -23 -22 -22 -22 -21 -21 -20 -20 -19
-19 -19 -19 -19 -19 -19 -20 -20 -21 -22 -22 -23 -24 -24 -24 -24 -24 -24 -24 -23 -23 -22 -22 -22 -22 -21 -21
-20 -20 -19 -20 -20 -20 -21 -21 -22 -23 -23 -24 -24 -25 -25 -25 -25 -25 -24 -24 -24 -23 -23 -23 -22 -22 -22
-20 -20 -20 -20 -21 -21 -21 -22 -23 -23 -23 -24 -25 -25 -25 -25 -25 -25 -25 -24 -24 -23 -23 -23 -23 -23 -22
-20 -20 -21 -21 -21 -22 -22 -23 -23 -23 -23 -24 -26 -26 -26 -25 -25 -25 -25 -24 -24 -24 -23 -23 -23 -23 -23
-21 -21 -21 -21 -22 -22 -23 -23 -23 -24 -24 -25 -26 -25 -25 -25 -25 -25 -24 -24 -24 -24 -24 -24 -24 -23 -23
-21 -21 -21 -22 -22 -23 -23 -24 -24 -24 -26 -26 -25 -25 -25 -25 -25 -24 -24 -24 -24 -25 -25 -24 -24 -24 -24
-22 -22 -22 -22 -23 -23 -24 -24 -24 -24 -26 -25 -26 -25 -25 -25 -25 -25 -24 -24 -24 -25 -25 -25 -25 -25 -25
-22 -23 -23 -23 -24 -24 -24 -24 -24 -24 -25 -25 -25 -25 -25 -25 -25 -25 -24 -24 -24 -25 -25 -25 -25 -25 -26
-24 -24 -24 -24 -25 -25 -25 -25 -24 -25 -25 -25 -25 -25 -25 -25 -25 -25 -25 -24 -24 -24 -25 -25 -25 -25 -26
-25 -25 -25 -26 -26 -26 -25 -25 -25 -25 -26 -25 -25 -25 -25 -25 -25 -26 -25 -25 -24 -24 -24 -25 -25 -25 -26
-27 -27 -27 -27 -27 -26 -26 -25 -25 -26 -26 -25 -25 -25 -25 -25 -26 -26 -26 -26 -26 -26 -25 -26 -26 -26 -26
-29 -28 -28 -28 -27 -27 -26 -26 -27 -27 -26 -25 -25 -25 -25 -26 -26 -26 -27 -27 -27 -27 -27 -27 -27 -27 -27
-30 -29 -29 -28 -28 -27 -27 -27 -27 -26 -26 -25 -25 -25 -25 -26 -26 -26 -27 -27 -28 -28 -28 -28 -27 -27 -27
Height
5640 5636 5632 5629 5625 5621 5615 5609 5602 5594 5587 5581 5576 5572 5569 5568 5566 5567 5568 5571 5573 5576 5579 5583 5587 5590 5593
5626 5620 5616 5611 5606 5602 5597 5591 5583 5574 5567 5561 5555 5551 5549 5548 5547 5546 5547 5550 5552 5554 5558 5564 5567 5571 5574
5610 5603 5598 5593 5588 5583 5576 5569 5560 5552 5546 5541 5537 5533 5530 5529 5529 5529 5529 5531 5534 5535 5537 5541 5546 5550 5556
5593 5587 5582 5575 5570 5565 5558 5549 5541 5533 5528 5524 5520 5517 5515 5514 5513 5512 5513 5514 5515 5518 5520 5523 5525 5531 5536
5575 5570 5564 5558 5553 5548 5542 5533 5524 5517 5511 5507 5504 5502 5499 5499 5499 5497 5497 5498 5498 5501 5504 5507 5510 5514 5518
5555 5552 5545 5540 5534 5529 5522 5514 5509 5501 5496 5492 5488 5485 5482 5482 5483 5483 5482 5482 5483 5484 5487 5491 5494 5499 5502
5537 5533 5528 5520 5514 5508 5501 5495 5491 5485 5481 5478 5472 5468 5463 5464 5465 5467 5467 5466 5467 5468 5471 5474 5478 5482 5486
5517 5512 5508 5501 5494 5487 5481 5477 5474 5469 5464 5464 5459 5456 5454 5451 5449 5450 5451 5451 5451 5453 5456 5459 5462 5466 5471
5498 5494 5488 5482 5476 5470 5464 5459 5457 5453 5450 5446 5445 5444 5442 5439 5436 5436 5436 5436 5437 5439 5441 5444 5447 5451 5455
5475 5470 5465 5460 5455 5451 5445 5443 5440 5438 5436 5432 5432 5430 5430 5425 5422 5422 5422 5422 5424 5425 5427 5430 5433 5437 5440
5452 5447 5442 5438 5435 5430 5430 5426 5424 5423 5420 5419 5419 5417 5414 5412 5410 5408 5408 5409 5411 5413 5415 5417 5420 5424 5428
5428 5425 5420 5416 5414 5412 5411 5409 5408 5407 5404 5405 5405 5403 5402 5400 5398 5397 5396 5396 5398 5400 5403 5406 5410 5414 5419
5402 5400 5397 5394 5394 5394 5393 5392 5392 5391 5390 5389 5390 5390 5389 5388 5387 5385 5384 5383 5385 5388 5391 5394 5398 5402 5406
5375 5375 5376 5375 5375 5374 5375 5375 5376 5375 5374 5375 5375 5375 5375 5375 5375 5373 5372 5373 5372 5374 5378 5382 5385 5388 5391
5348 5353 5355 5357 5358 5358 5359 5360 5361 5361 5361 5361 5361 5362 5363 5362 5362 5361 5361 5362 5362 5363 5364 5367 5369 5370 5373
5329 5333 5337 5339 5341 5344 5344 5345 5347 5348 5348 5348 5348 5349 5350 5350 5350 5349 5350 5351 5350 5351 5353 5355 5357 5356 5356
5312 5317 5321 5324 5327 5330 5331 5333 5335 5335 5336 5336 5337 5336 5337 5338 5337 5338 5339 5338 5339 5340 5340 5341 5343 5343 5340
Wind_Speed
55 56 59 62 64 67 69 75 81 84 82 77 69 62 61 62 60 58 56 57 58 58 57 58 58 57 58
56 59 62 64 66 69 74 79 82 81 74 67 61 57 55 56 57 57 58 58 57 58 58 59 58 58 58
58 60 62 64 68 74 77 80 79 73 66 61 55 52 52 52 52 52 52 55 56 57 59 58 59 58 58
60 60 62 65 71 75 76 76 72 66 61 55 50 47 49 49 47 46 47 47 47 49 54 56 57 58 57
59 60 62 67 72 74 71 71 65 60 56 53 49 48 50 48 45 44 44 45 45 45 47 49 52 51 53
58 59 64 69 71 71 70 68 60 56 54 52 51 51 54 52 49 44 44 45 45 45 46 47 48 49 49
59 61 66 69 71 70 70 64 57 53 52 48 48 49 51 46 45 45 44 46 45 45 43 44 47 49 50
61 64 67 70 71 70 68 60 55 51 51 43 40 42 40 40 40 38 42 43 43 42 43 43 44 45 47
64 67 70 71 70 68 63 57 52 49 45 42 41 40 41 43 43 39 38 39 40 40 41 42 43 44 45
71 73 73 72 68 66 60 54 51 47 38 40 39 39 39 43 43 41 38 37 37 38 40 41 42 43 44
75 74 69 66 66 65 56 52 48 44 39 37 37 39 40 41 39 37 35 35 35 37 37 39 40 41 40
77 69 65 65 66 61 53 50 46 42 39 39 36 39 39 38 35 34 37 37 35 35 36 38 38 38 38
71 66 65 65 62 54 50 47 44 39 39 41 39 38 37 34 33 35 35 37 35 34 35 36 37 39 40
69 65 62 59 54 50 46 44 41 36 38 39 39 37 33 31 33 34 35 34 37 36 37 38 40 42 44
65 59 54 49 48 46 42 40 37 35 35 36 38 34 32 33 31 32 34 34 37 40 42 42 44 46 46
56 49 44 44 43 40 38 36 32 32 33 35 34 33 33 31 31 31 31 34 39 42 44 45 46 48 49
44 39 39 38 38 35 33 30 30 31 30 31 32 33 30 27 29 29 30 35 37 40 43 45 45 46 50
Wind_Direction
293 293 293 293 294 296 297 299 300 300 300 297 291 285 280 273 268 264 260 261 264 262 259 256 255 252 251
294 296 296 297 299 301 300 300 300 300 299 294 289 284 279 274 270 266 263 260 257 256 257 255 252 251 250
294 296 298 299 302 302 301 302 302 301 298 294 288 282 279 274 271 269 268 264 261 259 255 251 250 248 247
296 297 299 302 303 302 303 302 301 299 296 291 287 281 278 276 274 271 270 268 265 261 259 256 252 249 247
297 299 303 304 304 303 302 301 299 297 293 290 285 280 278 274 274 272 269 269 265 260 257 257 255 252 249
298 303 303 303 304 303 301 299 297 294 291 287 285 280 276 273 270 269 271 269 265 260 255 251 250 250 249
299 302 303 303 303 302 298 298 295 291 288 285 282 282 280 281 275 263 265 270 264 261 259 255 251 247 246
298 302 303 303 303 300 297 296 293 290 288 285 277 278 281 284 282 273 265 263 263 259 256 254 250 248 245
296 299 302 302 300 296 294 292 290 287 286 280 277 281 280 281 280 275 269 264 261 258 255 253 251 249 246
295 298 300 300 296 293 291 288 287 286 276 272 276 281 281 281 281 276 271 265 260 257 253 251 250 247 245
293 294 295 293 289 288 287 285 284 283 271 269 278 282 281 281 279 274 269 265 262 257 253 249 245 242 239
287 287 284 284 282 284 282 281 280 279 269 266 276 281 278 278 274 271 272 268 261 255 249 243 239 238 236
280 278 276 277 279 277 276 278 278 275 265 265 276 281 276 272 271 273 268 266 261 251 247 245 243 243 243
272 269 270 274 273 272 273 275 277 273 267 268 277 280 277 274 274 267 263 257 263 265 261 257 253 251 249
270 269 271 268 266 267 270 272 273 268 268 271 277 276 276 277 269 262 262 262 258 260 264 261 262 262 262
268 269 264 261 263 265 266 267 266 267 268 273 275 276 277 272 268 265 262 257 257 256 257 260 262 266 267
261 258 258 259 261 261 261 261 264 267 271 273 274 276 275 273 270 268 261 259 258 259 261 262 262 265 267